Wetterdaten: Freitag, 22.05.2015
Datum Zeit Temp. A. Feuchte A. Luftdruck Regen Wind Richtung Richtung Sonnenschein ET UV Solar Taupunkt Windchill Windben Empfang
22.05.2015 00:00 8,9 C 99 % 1024,8 hPa 0,0 l/m 0,0 km/h (0 Bft) S-SW 192 0 min 0,000 mm 0,0 UV-I 0 W/m 8,8 C 8,9 C 0,0 km/h (0 Bft) 0,00 %
22.05.2015 00:15 8,9 C 99 % 1025,0 hPa 0,0 l/m 0,7 km/h (0 Bft) S 179 0 min 0,000 mm 0,0 UV-I 0 W/m 8,8 C 8,9 C 4,0 km/h (1 Bft) 0,00 %
22.05.2015 00:30 8,9 C 99 % 1025,1 hPa 0,0 l/m 0,0 km/h (0 Bft) S-SW 209 0 min 0,000 mm 0,0 UV-I 0 W/m 8,8 C 8,9 C 0,0 km/h (0 Bft) 0,00 %
22.05.2015 00:45 8,8 C 99 % 1024,8 hPa 0,0 l/m 0,0 km/h (0 Bft) S-SW 213 0 min 0,000 mm 0,0 UV-I 0 W/m 8,7 C 8,8 C 0,0 km/h (0 Bft) 0,00 %
22.05.2015 01:00 8,8 C 99 % 1025,1 hPa 0,0 l/m 0,0 km/h (0 Bft) S-SW 197 0 min 0,000 mm 0,0 UV-I 0 W/m 8,7 C 8,8 C 0,0 km/h (0 Bft) 0,00 %
22.05.2015 01:15 8,8 C 99 % 1025,1 hPa 0,0 l/m 0,0 km/h (0 Bft) S 174 0 min 0,000 mm 0,0 UV-I 0 W/m 8,7 C 8,8 C 0,0 km/h (0 Bft) 0,00 %
22.05.2015 01:30 8,8 C 99 % 1025,1 hPa 0,0 l/m 0,7 km/h (0 Bft) W-SW 252 0 min 0,000 mm 0,0 UV-I 0 W/m 8,7 C 8,8 C 4,0 km/h (1 Bft) 0,00 %
22.05.2015 01:45 8,7 C 99 % 1025,1 hPa 0,0 l/m 0,0 km/h (0 Bft) S 174 0 min 0,000 mm 0,0 UV-I 0 W/m 8,6 C 8,7 C 0,0 km/h (0 Bft) 0,00 %
22.05.2015 02:00 8,7 C 99 % 1024,9 hPa 0,0 l/m 1,4 km/h (1 Bft) SW 222 0 min 0,000 mm 0,0 UV-I 0 W/m 8,6 C 8,7 C 4,0 km/h (1 Bft) 0,00 %
22.05.2015 02:15 8,7 C 99 % 1025,0 hPa 0,0 l/m 0,4 km/h (0 Bft) SO 139 0 min 0,000 mm 0,0 UV-I 0 W/m 8,6 C 8,7 C 4,0 km/h (1 Bft) 0,00 %
22.05.2015 02:30 8,7 C 99 % 1025,2 hPa 0,0 l/m 0,0 km/h (0 Bft) S-SW 196 0 min 0,000 mm 0,0 UV-I 0 W/m 8,6 C 8,7 C 0,0 km/h (0 Bft) 0,00 %
22.05.2015 02:45 8,6 C 99 % 1025,0 hPa 0,0 l/m 0,0 km/h (0 Bft) S-SW 195 0 min 0,000 mm 0,0 UV-I 0 W/m 8,5 C 8,6 C 0,0 km/h (0 Bft) 0,00 %
22.05.2015 03:00 8,7 C 99 % 1025,1 hPa 0,0 l/m 0,0 km/h (0 Bft) S-SW 192 0 min 0,000 mm 0,0 UV-I 0 W/m 8,6 C 8,7 C 0,0 km/h (0 Bft) 0,00 %
22.05.2015 03:15 8,6 C 99 % 1025,0 hPa 0,0 l/m 0,4 km/h (0 Bft) SW 225 0 min 0,000 mm 0,0 UV-I 0 W/m 8,5 C 8,6 C 4,0 km/h (1 Bft) 0,00 %
22.05.2015 03:30 8,6 C 99 % 1024,9 hPa 0,0 l/m 0,0 km/h (0 Bft) S-SW 199 0 min 0,000 mm 0,0 UV-I 0 W/m 8,5 C 8,6 C 0,0 km/h (0 Bft) 0,00 %
22.05.2015 03:45 8,6 C 99 % 1025,0 hPa 0,0 l/m 0,4 km/h (0 Bft) S-SW 204 0 min 0,000 mm 0,0 UV-I 0 W/m 8,5 C 8,6 C 4,0 km/h (1 Bft) 0,00 %
22.05.2015 04:00 8,7 C 99 % 1024,9 hPa 0,0 l/m 0,0 km/h (0 Bft) S-SW 195 0 min 0,000 mm 0,0 UV-I 0 W/m 8,6 C 8,7 C 0,0 km/h (0 Bft) 0,00 %
22.05.2015 04:15 8,8 C 99 % 1024,8 hPa 0,0 l/m 0,4 km/h (0 Bft) S 188 0 min 0,000 mm 0,0 UV-I 0 W/m 8,7 C 8,8 C 4,0 km/h (1 Bft) 0,00 %
22.05.2015 04:30 8,7 C 99 % 1024,6 hPa 0,0 l/m 0,0 km/h (0 Bft) SW 225 0 min 0,000 mm 0,0 UV-I 0 W/m 8,6 C 8,7 C 0,0 km/h (0 Bft) 0,00 %
22.05.2015 04:45 8,7 C 99 % 1024,7 hPa 0,0 l/m 0,0 km/h (0 Bft) SW 218 0 min 0,000 mm 0,0 UV-I 0 W/m 8,6 C 8,7 C 0,0 km/h (0 Bft) 0,00 %
22.05.2015 05:00 8,7 C 99 % 1024,9 hPa 0,0 l/m 0,0 km/h (0 Bft) S 177 0 min 0,000 mm 0,0 UV-I 0 W/m 8,6 C 8,7 C 0,0 km/h (0 Bft) 0,00 %
22.05.2015 05:15 8,7 C 99 % 1024,9 hPa 0,0 l/m 0,0 km/h (0 Bft) S 185 0 min 0,000 mm 0,0 UV-I 0 W/m 8,6 C 8,7 C 0,0 km/h (0 Bft) 0,00 %
22.05.2015 05:30 8,7 C 99 % 1024,9 hPa 0,0 l/m 0,0 km/h (0 Bft) S 180 0 min 0,000 mm 0,0 UV-I 0 W/m 8,6 C 8,7 C 0,0 km/h (0 Bft) 0,00 %
22.05.2015 05:45 8,7 C 99 % 1024,8 hPa 0,0 l/m 0,0 km/h (0 Bft) S 184 0 min 0,000 mm 0,0 UV-I 1 W/m 8,6 C 8,7 C 0,0 km/h (0 Bft) 0,00 %
22.05.2015 06:00 8,7 C 99 % 1024,7 hPa 0,0 l/m 0,0 km/h (0 Bft) S 190 0 min 0,000 mm 0,0 UV-I 9 W/m 8,6 C 8,7 C 0,0 km/h (0 Bft) 0,00 %
22.05.2015 06:15 8,8 C 99 % 1024,8 hPa 0,0 l/m 0,0 km/h (0 Bft) S-SW 199 0 min 0,000 mm 0,0 UV-I 20 W/m 8,7 C 8,8 C 0,0 km/h (0 Bft) 0,00 %
22.05.2015 06:30 8,9 C 99 % 1024,9 hPa 0,0 l/m 0,0 km/h (0 Bft) S 185 0 min 0,000 mm 0,0 UV-I 40 W/m 8,8 C 8,9 C 0,0 km/h (0 Bft) 0,00 %
22.05.2015 06:45 9,0 C 99 % 1024,7 hPa 0,0 l/m 0,0 km/h (0 Bft) SW 226 0 min 0,000 mm 0,0 UV-I 29 W/m 8,9 C 9,0 C 0,0 km/h (0 Bft) 0,00 %
22.05.2015 07:00 9,1 C 99 % 1024,9 hPa 0,0 l/m 0,0 km/h (0 Bft) W-SW 251 0 min 0,000 mm 0,0 UV-I 27 W/m 9,0 C 9,1 C 0,0 km/h (0 Bft) 0,00 %
22.05.2015 07:15 9,1 C 99 % 1024,7 hPa 0,0 l/m 0,0 km/h (0 Bft) SW 215 0 min 0,000 mm 0,0 UV-I 42 W/m 9,0 C 9,1 C 0,0 km/h (0 Bft) 0,00 %
22.05.2015 07:30 9,2 C 99 % 1025,0 hPa 0,0 l/m 0,0 km/h (0 Bft) S 179 0 min 0,000 mm 0,0 UV-I 65 W/m 9,1 C 9,2 C 0,0 km/h (0 Bft) 0,00 %
22.05.2015 07:45 9,5 C 98 % 1024,9 hPa 0,0 l/m 0,0 km/h (0 Bft) S-SW 194 0 min 0,000 mm 1,0 UV-I 115 W/m 9,2 C 9,5 C 0,0 km/h (0 Bft) 0,00 %
22.05.2015 08:00 9,8 C 98 % 1024,9 hPa 0,0 l/m 0,0 km/h (0 Bft) S-SW 213 0 min 0,000 mm 1,0 UV-I 123 W/m 9,5 C 9,8 C 0,0 km/h (0 Bft) 0,00 %
22.05.2015 08:15 9,9 C 97 % 1024,9 hPa 0,0 l/m 0,0 km/h (0 Bft) S-SW 212 0 min 0,000 mm 1,0 UV-I 117 W/m 9,4 C 9,9 C 0,0 km/h (0 Bft) 0,00 %
22.05.2015 08:30 10,0 C 96 % 1025,0 hPa 0,0 l/m 0,0 km/h (0 Bft) S-SW 201 0 min 0,000 mm 1,0 UV-I 105 W/m 9,4 C 10,0 C 0,0 km/h (0 Bft) 0,00 %
22.05.2015 08:45 10,2 C 94 % 1025,0 hPa 0,0 l/m 0,0 km/h (0 Bft) S-SW 212 0 min 0,000 mm 1,0 UV-I 153 W/m 9,3 C 10,2 C 0,0 km/h (0 Bft) 0,00 %
22.05.2015 09:00 10,6 C 92 % 1025,1 hPa 0,0 l/m 0,0 km/h (0 Bft) S-SW 200 0 min 0,000 mm 1,0 UV-I 256 W/m 9,4 C 10,6 C 0,0 km/h (0 Bft) 0,00 %
22.05.2015 09:15 11,7 C 85 % 1024,7 hPa 0,0 l/m 0,0 km/h (0 Bft) SW 214 0 min 0,000 mm 1,0 UV-I 251 W/m 9,3 C 11,7 C 0,0 km/h (0 Bft) 0,00 %
22.05.2015 09:30 12,2 C 82 % 1024,5 hPa 0,0 l/m 0,0 km/h (0 Bft) S 190 0 min 0,000 mm 2,0 UV-I 282 W/m 9,2 C 12,2 C 0,0 km/h (0 Bft) 0,00 %
22.05.2015 09:45 12,7 C 79 % 1024,3 hPa 0,0 l/m 0,0 km/h (0 Bft) S 187 0 min 0,000 mm 2,0 UV-I 335 W/m 9,2 C 12,7 C 0,0 km/h (0 Bft) 0,00 %
22.05.2015 10:00 12,8 C 78 % 1024,3 hPa 0,0 l/m 0,0 km/h (0 Bft) S-SW 198 0 min 0,000 mm 2,0 UV-I 256 W/m 9,1 C 12,8 C 0,0 km/h (0 Bft) 0,00 %
22.05.2015 10:15 13,0 C 78 % 1024,1 hPa 0,0 l/m 0,0 km/h (0 Bft) SW 221 0 min 0,000 mm 2,0 UV-I 335 W/m 9,3 C 13,0 C 0,0 km/h (0 Bft) 0,00 %
22.05.2015 10:30 13,1 C 72 % 1023,9 hPa 0,0 l/m 0,0 km/h (0 Bft) W-SW 257 0 min 0,000 mm 2,0 UV-I 314 W/m 8,2 C 13,1 C 0,0 km/h (0 Bft) 0,00 %
22.05.2015 10:45 13,3 C 72 % 1023,5 hPa 0,0 l/m 0,0 km/h (0 Bft) SW 233 0 min 0,000 mm 3,0 UV-I 329 W/m 8,4 C 13,3 C 0,0 km/h (0 Bft) 0,00 %
22.05.2015 11:00 14,2 C 65 % 1023,4 hPa 0,0 l/m 0,0 km/h (0 Bft) SW 226 0 min 0,000 mm 2,0 UV-I 426 W/m 7,7 C 14,2 C 0,0 km/h (0 Bft) 0,00 %
22.05.2015 11:15 14,3 C 66 % 1023,3 hPa 0,0 l/m 0,0 km/h (0 Bft) SW 229 0 min 0,000 mm 2,0 UV-I 325 W/m 8,0 C 14,3 C 0,0 km/h (0 Bft) 0,00 %
22.05.2015 11:30 14,4 C 69 % 1023,2 hPa 0,0 l/m 0,0 km/h (0 Bft) S-SW 194 0 min 0,000 mm 1,0 UV-I 231 W/m 8,8 C 14,4 C 0,0 km/h (0 Bft) 0,00 %
22.05.2015 11:45 14,3 C 67 % 1023,1 hPa 0,0 l/m 0,0 km/h (0 Bft) S 179 0 min 0,000 mm 1,0 UV-I 222 W/m 8,3 C 14,3 C 0,0 km/h (0 Bft) 0,00 %
22.05.2015 12:00 14,4 C 63 % 1023,3 hPa 0,0 l/m 0,0 km/h (0 Bft) S 183 0 min 0,000 mm 2,0 UV-I 246 W/m 7,4 C 14,4 C 0,0 km/h (0 Bft) 0,00 %
22.05.2015 12:15 14,5 C 68 % 1022,8 hPa 0,0 l/m 0,0 km/h (0 Bft) S 187 0 min 0,000 mm 1,0 UV-I 138 W/m 8,7 C 14,5 C 0,0 km/h (0 Bft) 0,00 %
22.05.2015 12:30 14,6 C 69 % 1022,8 hPa 0,0 l/m 0,0 km/h (0 Bft) S 175 0 min 0,000 mm 1,0 UV-I 174 W/m 9,0 C 14,6 C 0,0 km/h (0 Bft) 0,00 %
22.05.2015 12:45 14,5 C 72 % 1022,6 hPa 0,0 l/m 0,0 km/h (0 Bft) S 179 0 min 0,000 mm 1,0 UV-I 185 W/m 9,5 C 14,5 C 0,0 km/h (0 Bft) 0,00 %
22.05.2015 13:00 14,0 C 72 % 1022,4 hPa 0,0 l/m 0,0 km/h (0 Bft) S-SW 205 0 min 0,000 mm 0,0 UV-I 67 W/m 9,0 C 14,0 C 0,0 km/h (0 Bft) 0,00 %
22.05.2015 13:15 13,1 C 78 % 1022,6 hPa 0,0 l/m 0,0 km/h (0 Bft) S 184 0 min 0,000 mm 1,0 UV-I 77 W/m 9,4 C 13,1 C 0,0 km/h (0 Bft) 0,00 %
22.05.2015 13:30 13,0 C 78 % 1022,3 hPa 0,0 l/m 0,0 km/h (0 Bft) S-SW 197 0 min 0,000 mm 1,0 UV-I 165 W/m 9,3 C 13,0 C 0,0 km/h (0 Bft) 0,00 %
22.05.2015 13:45 13,1 C 79 % 1022,3 hPa 0,0 l/m 0,0 km/h (0 Bft) S 190 0 min 0,000 mm 1,0 UV-I 160 W/m 9,5 C 13,1 C 0,0 km/h (0 Bft) 0,00 %
22.05.2015 14:00 13,3 C 78 % 1022,2 hPa 0,0 l/m 0,0 km/h (0 Bft) S 183 0 min 0,000 mm 1,0 UV-I 170 W/m 9,5 C 13,3 C 0,0 km/h (0 Bft) 0,00 %
22.05.2015 14:15 13,0 C 81 % 1022,3 hPa 0,0 l/m 0,0 km/h (0 Bft) S 178 0 min 0,000 mm 1,0 UV-I 131 W/m 9,8 C 13,0 C 0,0 km/h (0 Bft) 0,00 %
22.05.2015 14:30 12,4 C 82 % 1022,3 hPa 0,3 l/m 0,0 km/h (0 Bft) S-SW 197 0 min 0,000 mm 1,0 UV-I 118 W/m 9,4 C 12,4 C 0,0 km/h (0 Bft) 0,00 %
22.05.2015 14:45 12,0 C 85 % 1022,4 hPa 0,3 l/m 0,0 km/h (0 Bft) S 186 0 min 0,000 mm 2,0 UV-I 198 W/m 9,6 C 12,0 C 0,0 km/h (0 Bft) 0,00 %
22.05.2015 15:00 12,0 C 86 % 1022,4 hPa 0,3 l/m 0,0 km/h (0 Bft) S 190 0 min 0,000 mm 1,0 UV-I 136 W/m 9,7 C 12,0 C 0,0 km/h (0 Bft) 0,00 %
22.05.2015 15:15 11,8 C 86 % 1022,3 hPa 0,3 l/m 0,0 km/h (0 Bft) S-SW 194 0 min 0,000 mm 1,0 UV-I 143 W/m 9,5 C 11,8 C 0,0 km/h (0 Bft) 0,00 %
22.05.2015 15:30 11,9 C 85 % 1022,5 hPa 0,0 l/m 0,0 km/h (0 Bft) S-SW 196 0 min 0,000 mm 1,0 UV-I 100 W/m 9,5 C 11,9 C 0,0 km/h (0 Bft) 0,00 %
22.05.2015 15:45 11,8 C 86 % 1022,2 hPa 0,0 l/m 0,0 km/h (0 Bft) S-SW 196 0 min 0,000 mm 1,0 UV-I 119 W/m 9,5 C 11,8 C 0,0 km/h (0 Bft) 0,00 %
22.05.2015 16:00 11,7 C 86 % 1022,2 hPa 0,0 l/m 0,0 km/h (0 Bft) S-SW 196 0 min 0,000 mm 1,0 UV-I 77 W/m 9,4 C 11,7 C 0,0 km/h (0 Bft) 0,00 %
22.05.2015 16:15 12,3 C 86 % 1021,9 hPa 0,0 l/m 0,0 km/h (0 Bft) S-SW 210 0 min 0,000 mm 2,0 UV-I 306 W/m 10,0 C 12,3 C 0,0 km/h (0 Bft) 0,00 %
22.05.2015 16:30 13,4 C 81 % 1021,4 hPa 0,0 l/m 0,0 km/h (0 Bft) S-SW 201 0 min 0,000 mm 1,0 UV-I 278 W/m 10,2 C 13,4 C 0,0 km/h (0 Bft) 0,00 %
22.05.2015 16:45 13,1 C 82 % 1021,5 hPa 0,0 l/m 0,0 km/h (0 Bft) S 186 0 min 0,000 mm 1,0 UV-I 160 W/m 10,1 C 13,1 C 0,0 km/h (0 Bft) 0,00 %
22.05.2015 17:00 12,7 C 83 % 1021,2 hPa 0,3 l/m 0,0 km/h (0 Bft) S 181 0 min 0,000 mm 1,0 UV-I 163 W/m 9,9 C 12,7 C 0,0 km/h (0 Bft) 0,00 %
22.05.2015 17:15 12,4 C 82 % 1021,2 hPa 0,0 l/m 0,0 km/h (0 Bft) S 183 0 min 0,000 mm 1,0 UV-I 113 W/m 9,4 C 12,4 C 0,0 km/h (0 Bft) 0,00 %
22.05.2015 17:30 12,4 C 82 % 1021,0 hPa 0,0 l/m 0,0 km/h (0 Bft) S 178 0 min 0,000 mm 1,0 UV-I 82 W/m 9,4 C 12,4 C 0,0 km/h (0 Bft) 0,00 %
22.05.2015 17:45 12,2 C 82 % 1021,1 hPa 0,0 l/m 0,0 km/h (0 Bft) S-SW 194 0 min 0,000 mm 1,0 UV-I 66 W/m 9,2 C 12,2 C 0,0 km/h (0 Bft) 0,00 %
22.05.2015 18:00 11,8 C 84 % 1021,1 hPa 0,0 l/m 0,0 km/h (0 Bft) S 184 0 min 0,000 mm 0,0 UV-I 37 W/m 9,2 C 11,8 C 0,0 km/h (0 Bft) 0,00 %
22.05.2015 18:15 11,6 C 86 % 1021,1 hPa 0,0 l/m 0,0 km/h (0 Bft) S 184 0 min 0,000 mm 0,0 UV-I 27 W/m 9,3 C 11,6 C 0,0 km/h (0 Bft) 0,00 %
22.05.2015 18:30 11,5 C 88 % 1021,1 hPa 0,0 l/m 0,0 km/h (0 Bft) S 183 0 min 0,000 mm 0,0 UV-I 25 W/m 9,6 C 11,5 C 0,0 km/h (0 Bft) 0,00 %
22.05.2015 18:45 11,3 C 89 % 1021,0 hPa 0,0 l/m 0,0 km/h (0 Bft) SW 226 0 min 0,000 mm 0,0 UV-I 24 W/m 9,6 C 11,3 C 0,0 km/h (0 Bft) 0,00 %
22.05.2015 19:00 11,1 C 90 % 1020,9 hPa 0,0 l/m 0,4 km/h (0 Bft) W-SW 256 0 min 0,000 mm 0,0 UV-I 17 W/m 9,5 C 11,1 C 4,0 km/h (1 Bft) 0,00 %
22.05.2015 19:15 10,9 C 90 % 1020,8 hPa 0,0 l/m 0,0 km/h (0 Bft) S-SW 197 0 min 0,000 mm 0,0 UV-I 16 W/m 9,3 C 10,9 C 0,0 km/h (0 Bft) 0,00 %
22.05.2015 19:30 10,8 C 90 % 1021,1 hPa 0,0 l/m 0,0 km/h (0 Bft) S 181 0 min 0,000 mm 0,0 UV-I 6 W/m 9,2 C 10,8 C 0,0 km/h (0 Bft) 0,00 %
22.05.2015 19:45 10,7 C 90 % 1021,0 hPa 0,0 l/m 0,0 km/h (0 Bft) S 178 0 min 0,000 mm 0,0 UV-I 1 W/m 9,1 C 10,7 C 0,0 km/h (0 Bft) 0,00 %
22.05.2015 20:00 10,6 C 90 % 1021,1 hPa 0,0 l/m 0,0 km/h (0 Bft) S 191 0 min 0,000 mm 0,0 UV-I 0 W/m 9,0 C 10,6 C 0,0 km/h (0 Bft) 0,00 %
22.05.2015 20:15 10,5 C 90 % 1021,2 hPa 0,0 l/m 0,0 km/h (0 Bft) W-SW 252 0 min 0,000 mm 0,0 UV-I 0 W/m 8,9 C 10,5 C 0,0 km/h (0 Bft) 0,00 %
22.05.2015 20:30 10,7 C 88 % 1021,0 hPa 0,0 l/m 0,0 km/h (0 Bft) S 186 0 min 0,000 mm 0,0 UV-I 0 W/m 8,8 C 10,7 C 0,0 km/h (0 Bft) 0,00 %
22.05.2015 20:45 10,6 C 89 % 1021,4 hPa 0,0 l/m 0,0 km/h (0 Bft) S 172 0 min 0,000 mm 0,0 UV-I 0 W/m 8,9 C 10,6 C 0,0 km/h (0 Bft) 0,00 %
22.05.2015 21:00 10,5 C 90 % 1021,5 hPa 0,0 l/m 0,0 km/h (0 Bft) S 189 0 min 0,000 mm 0,0 UV-I 0 W/m 8,9 C 10,5 C 0,0 km/h (0 Bft) 0,00 %
22.05.2015 21:15 10,4 C 93 % 1021,6 hPa 0,0 l/m 0,0 km/h (0 Bft) SW 227 0 min 0,000 mm 0,0 UV-I 0 W/m 9,3 C 10,4 C 0,0 km/h (0 Bft) 0,00 %
22.05.2015 21:30 10,2 C 93 % 1021,5 hPa 0,3 l/m 0,0 km/h (0 Bft) S 175 0 min 0,000 mm 0,0 UV-I 0 W/m 9,1 C 10,2 C 0,0 km/h (0 Bft) 0,00 %
22.05.2015 21:45 10,1 C 94 % 1021,4 hPa 0,3 l/m 0,0 km/h (0 Bft) S 190 0 min 0,000 mm 0,0 UV-I 0 W/m 9,2 C 10,1 C 0,0 km/h (0 Bft) 0,00 %
22.05.2015 22:00 10,0 C 94 % 1021,5 hPa 0,0 l/m 0,0 km/h (0 Bft) W-SW 252 0 min 0,000 mm 0,0 UV-I 0 W/m 9,1 C 10,0 C 0,0 km/h (0 Bft) 0,00 %
22.05.2015 22:15 9,8 C 95 % 1021,4 hPa 0,3 l/m 0,0 km/h (0 Bft) W-SW 251 0 min 0,000 mm 0,0 UV-I 0 W/m 9,0 C 9,8 C 0,0 km/h (0 Bft) 0,00 %
22.05.2015 22:30 9,7 C 95 % 1021,3 hPa 0,0 l/m 0,0 km/h (0 Bft) S-SW 211 0 min 0,000 mm 0,0 UV-I 0 W/m 8,9 C 9,7 C 0,0 km/h (0 Bft) 0,00 %
22.05.2015 22:45 9,6 C 95 % 1021,4 hPa 0,0 l/m 0,0 km/h (0 Bft) S 172 0 min 0,000 mm 0,0 UV-I 0 W/m 8,8 C 9,6 C 0,0 km/h (0 Bft) 0,00 %
22.05.2015 23:00 9,6 C 95 % 1021,0 hPa 0,0 l/m 0,0 km/h (0 Bft) W-SW 251 0 min 0,000 mm 0,0 UV-I 0 W/m 8,8 C 9,6 C 0,0 km/h (0 Bft) 0,00 %
22.05.2015 23:15 9,5 C 95 % 1020,8 hPa 0,0 l/m 0,0 km/h (0 Bft) O-SO 121 0 min 0,000 mm 0,0 UV-I 0 W/m 8,7 C 9,5 C 0,0 km/h (0 Bft) 0,00 %
22.05.2015 23:30 9,5 C 95 % 1020,6 hPa 0,3 l/m 0,0 km/h (0 Bft) O-SO 122 0 min 0,000 mm 0,0 UV-I 0 W/m 8,7 C 9,5 C 0,0 km/h (0 Bft) 0,00 %
22.05.2015 23:45 9,5 C 95 % 1020,7 hPa 0,0 l/m 0,0 km/h (0 Bft) S 172 0 min 0,000 mm 0,0 UV-I 0 W/m 8,7 C 9,5 C 0,0 km/h (0 Bft) 0,00 %
_ Min-Zeit 02:45 12:00 23:30 - 00:00 - - - - - - 12:00 02:45 00:00 00:00
Minimum _ 8,6 C 63 % 1020,6 hPa - 0,0 km/h (0 Bft) - - - - - - 7,4 C 8,6 C 0,0 km/h (0 Bft) 0,00 %
_ Max-Zeit 12:30 00:00 02:30 14:30 02:00 - - 00:00 00:00 10:45 11:00 16:30 12:30 00:15 00:00
Maximum _ 14,6 C 99 % 1025,2 hPa 0,3 l/m 1,4 km/h
SW (1 Bft)
- - 0 min 0,000 mm 3,0 UV-I 426 W/m 10,2 C 14,6 C 4,0 km/h
S (1 Bft)
0,00 %
Durchschnitt _ 10,8 C 89 % 1023,1 hPa #2,7 l/m 0,1 km/h (0 Bft) SW - #0 min. #0,000 mm 1,3 UV-I 143 W/m 9,0 C 10,8 C 0,3 km/h (0 Bft) 0,00 %